Time,TemperatureF,DewpointF,PressureIn,WindDirection,WindDirectionDegrees,WindSpeedMPH,WindSpeedGustMPH,Humidity,HourlyPrecipIn,Conditions,Clouds,dailyrainin,SoftwareType,DateUTC
2014-01-15 10:56:00,35.4,26.0,28.82,WSW,247,7.5,0.0,70,0.00,,,0.00,Rainwise IP-100,2014-01-15 16:56:00,
2014-01-15 10:57:00,35.5,28.0,28.82,WSW,247,7.2,7.2,70,0.00,,,0.00,Rainwise IP-100,2014-01-15 16:57:00,
2014-01-15 11:00:00,35.5,28.0,28.82,WSW,247,6.8,7.0,70,0.00,,,0.00,Rainwise IP-100,2014-01-15 17:00:00,
2014-01-15 11:04:00,36.1,26.0,28.82,SSW,202,7.0,9.0,68,0.00,,,0.00,Rainwise IP-100,2014-01-15 17:04:00,
2014-01-15 11:09:00,36.9,26.0,28.82,WSW,247,7.7,8.0,65,0.00,,,0.00,Rainwise IP-100,2014-01-15 17:09:00,
2014-01-15 11:10:00,37.1,26.0,28.81,SSW,202,6.5,10.0,65,0.00,,,0.00,Rainwise IP-100,2014-01-15 17:10:00,
2014-01-15 11:11:00,37.3,26.0,28.81,SW,225,8.6,10.0,64,0.00,,,0.00,Rainwise IP-100,2014-01-15 17:11:00,
2014-01-15 11:16:00,38.0,26.0,28.81,WSW,247,9.1,9.1,61,0.00,,,0.00,Rainwise IP-100,2014-01-15 17:16:00,
2014-01-15 11:21:00,38.7,26.0,28.81,SSW,202,7.9,9.0,57,0.00,,,0.00,Rainwise IP-100,2014-01-15 17:21:00,
2014-01-15 11:26:00,39.0,24.0,28.80,SW,225,6.5,10.0,55,0.00,,,0.00,Rainwise IP-100,2014-01-15 17:26:00,
2014-01-15 11:31:00,39.1,24.0,28.80,SSW,202,5.8,10.0,55,0.00,,,0.00,Rainwise IP-100,2014-01-15 17:31:00,
2014-01-15 11:36:00,39.4,24.0,28.80,SSW,202,7.0,9.0,55,0.00,,,0.00,Rainwise IP-100,2014-01-15 17:36:00,
2014-01-15 11:41:00,39.6,26.0,28.80,South,180,5.4,9.0,55,0.00,,,0.00,Rainwise IP-100,2014-01-15 17:41:00,
2014-01-15 11:46:00,39.9,26.0,28.79,SSW,202,9.3,10.0,54,0.00,,,0.00,Rainwise IP-100,2014-01-15 17:46:00,
2014-01-15 11:51:00,40.3,24.0,28.79,SSW,202,3.7,12.0,53,0.00,,,0.00,Rainwise IP-100,2014-01-15 17:51:00,
2014-01-15 11:56:00,40.4,24.0,28.78,SSW,202,7.0,12.0,52,0.00,,,0.00,Rainwise IP-100,2014-01-15 17:56:00,
2014-01-15 12:02:00,40.8,24.0,28.79,SW,225,14.5,14.5,51,0.00,,,0.00,Rainwise IP-100,2014-01-15 18:02:00,
2014-01-15 12:07:00,41.3,24.0,28.78,SSW,202,8.4,12.0,51,0.00,,,0.00,Rainwise IP-100,2014-01-15 18:07:00,
2014-01-15 12:12:00,41.5,26.0,28.78,SW,225,10.5,13.0,50,0.00,,,0.00,Rainwise IP-100,2014-01-15 18:12:00,
2014-01-15 12:17:00,41.4,24.0,28.77,SSW,202,7.2,13.0,50,0.00,,,0.00,Rainwise IP-100,2014-01-15 18:17:00,
2014-01-15 12:22:00,41.6,26.0,28.77,WSW,247,5.8,11.0,50,0.00,,,0.00,Rainwise IP-100,2014-01-15 18:22:00,
2014-01-15 12:27:00,41.8,24.0,28.76,SSW,202,7.9,12.0,49,0.00,,,0.00,Rainwise IP-100,2014-01-15 18:27:00,
2014-01-15 12:32:00,41.9,24.0,28.76,SSW,202,10.0,12.0,49,0.00,,,0.00,Rainwise IP-100,2014-01-15 18:32:00,
2014-01-15 12:37:00,42.1,24.0,28.75,WSW,247,7.2,11.0,49,0.00,,,0.00,Rainwise IP-100,2014-01-15 18:37:00,
2014-01-15 12:42:00,42.3,24.0,28.75,SSW,202,7.2,11.0,49,0.00,,,0.00,Rainwise IP-100,2014-01-15 18:42:00,
2014-01-15 12:47:00,42.7,24.0,28.74,SW,225,9.8,12.0,48,0.00,,,0.00,Rainwise IP-100,2014-01-15 18:47:00,
2014-01-15 12:52:00,43.0,24.0,28.73,SSW,202,10.0,13.0,48,0.00,,,0.00,Rainwise IP-100,2014-01-15 18:52:00,
2014-01-15 12:57:00,43.2,24.0,28.73,SSW,202,8.9,13.0,48,0.00,,,0.00,Rainwise IP-100,2014-01-15 18:57:00,
2014-01-15 13:03:00,43.5,26.0,28.73,SSW,202,8.2,14.0,48,0.00,,,0.00,Rainwise IP-100,2014-01-15 19:03:00,
2014-01-15 13:08:00,43.5,26.0,28.72,SSW,202,9.3,12.0,47,0.00,,,0.00,Rainwise IP-100,2014-01-15 19:08:00,
2014-01-15 13:13:00,43.3,24.0,28.71,SSW,202,11.7,14.0,48,0.00,,,0.00,Rainwise IP-100,2014-01-15 19:13:00,
2014-01-15 13:18:00,43.1,24.0,28.71,SSW,202,9.8,13.0,48,0.00,,,0.00,Rainwise IP-100,2014-01-15 19:18:00,
2014-01-15 13:23:00,43.2,24.0,28.71,SSW,202,12.4,15.0,47,0.00,,,0.00,Rainwise IP-100,2014-01-15 19:23:00,
2014-01-15 13:28:00,43.6,26.0,28.70,SSW,202,11.9,17.0,47,0.00,,,0.00,Rainwise IP-100,2014-01-15 19:28:00,
2014-01-15 13:33:00,44.1,26.0,28.69,SW,225,10.0,15.0,47,0.00,,,0.00,Rainwise IP-100,2014-01-15 19:33:00,
2014-01-15 13:38:00,44.5,26.0,28.69,South,180,11.0,16.0,46,0.00,,,0.00,Rainwise IP-100,2014-01-15 19:38:00,
2014-01-15 13:43:00,44.8,26.0,28.68,SSW,202,10.7,13.0,46,0.00,,,0.00,Rainwise IP-100,2014-01-15 19:43:00,
2014-01-15 13:48:00,45.3,26.0,28.68,SSW,202,11.4,16.0,45,0.00,,,0.00,Rainwise IP-100,2014-01-15 19:48:00,
2014-01-15 13:53:00,45.7,26.0,28.68,SSW,202,10.7,15.0,45,0.00,,,0.00,Rainwise IP-100,2014-01-15 19:53:00,
2014-01-15 13:58:00,46.0,26.0,28.68,SSW,202,11.2,15.0,44,0.00,,,0.00,Rainwise IP-100,2014-01-15 19:58:00,
2014-01-15 14:04:00,46.1,26.0,28.68,SSW,202,10.7,16.0,44,0.00,,,0.00,Rainwise IP-100,2014-01-15 20:04:00,
2014-01-15 14:09:00,45.9,24.0,28.67,SSW,202,13.8,14.0,43,0.00,,,0.00,Rainwise IP-100,2014-01-15 20:09:00,
2014-01-15 14:15:00,46.0,24.0,28.67,SSW,202,10.7,14.0,43,0.00,,,0.00,Rainwise IP-100,2014-01-15 20:15:00,
2014-01-15 14:20:00,46.4,24.0,28.66,SSW,202,9.6,16.0,43,0.00,,,0.00,Rainwise IP-100,2014-01-15 20:20:00,
2014-01-15 14:25:00,46.7,26.0,28.66,SSW,202,14.5,19.0,43,0.00,,,0.00,Rainwise IP-100,2014-01-15 20:25:00,
2014-01-15 14:30:00,47.2,24.0,28.66,South,180,13.8,17.0,42,0.00,,,0.00,Rainwise IP-100,2014-01-15 20:30:00,
2014-01-15 14:35:00,47.5,26.0,28.66,SSW,202,12.8,16.0,42,0.00,,,0.00,Rainwise IP-100,2014-01-15 20:35:00,
2014-01-15 14:40:00,47.6,26.0,28.66,South,180,11.2,16.0,42,0.00,,,0.00,Rainwise IP-100,2014-01-15 20:40:00,
2014-01-15 14:45:00,47.5,26.0,28.65,South,180,8.6,13.0,42,0.00,,,0.00,Rainwise IP-100,2014-01-15 20:45:00,
2014-01-15 14:50:00,47.4,26.0,28.65,South,180,13.5,14.0,43,0.00,,,0.00,Rainwise IP-100,2014-01-15 20:50:00,
2014-01-15 14:55:00,47.6,26.0,28.65,South,180,8.4,14.0,43,0.00,,,0.00,Rainwise IP-100,2014-01-15 20:55:00,
2014-01-15 15:00:00,47.7,26.0,28.64,South,180,9.3,12.0,43,0.00,,,0.00,Rainwise IP-100,2014-01-15 21:00:00,
2014-01-15 15:06:00,47.7,26.0,28.64,SSW,202,11.4,18.0,43,0.00,,,0.00,Rainwise IP-100,2014-01-15 21:06:00,
2014-01-15 15:11:00,48.0,28.0,28.64,South,180,11.7,17.0,43,0.00,,,0.00,Rainwise IP-100,2014-01-15 21:11:00,
2014-01-15 15:16:00,48.6,28.0,28.63,SSW,202,13.1,17.0,42,0.00,,,0.00,Rainwise IP-100,2014-01-15 21:16:00,
2014-01-15 15:21:00,49.1,26.0,28.63,South,180,14.7,17.0,41,0.00,,,0.00,Rainwise IP-100,2014-01-15 21:21:00,
2014-01-15 15:26:00,49.0,26.0,28.63,SSW,202,11.0,16.0,40,0.00,,,0.00,Rainwise IP-100,2014-01-15 21:26:00,
2014-01-15 15:31:00,48.9,26.0,28.62,South,180,10.7,15.0,41,0.00,,,0.00,Rainwise IP-100,2014-01-15 21:31:00,
2014-01-15 15:36:00,48.7,26.0,28.62,SSW,202,12.4,16.0,41,0.00,,,0.00,Rainwise IP-100,2014-01-15 21:36:00,
2014-01-15 15:41:00,48.6,26.0,28.61,SSW,202,15.9,16.0,41,0.00,,,0.00,Rainwise IP-100,2014-01-15 21:41:00,
2014-01-15 15:46:00,48.8,28.0,28.62,South,180,14.5,16.0,42,0.00,,,0.00,Rainwise IP-100,2014-01-15 21:46:00,
2014-01-15 15:51:00,48.8,28.0,28.60,South,180,11.4,17.0,42,0.00,,,0.00,Rainwise IP-100,2014-01-15 21:51:00,
2014-01-15 15:56:00,48.4,26.0,28.61,South,180,8.6,16.0,42,0.00,,,0.00,Rainwise IP-100,2014-01-15 21:56:00,
2014-01-15 16:01:00,48.2,28.0,28.60,South,180,8.4,15.0,43,0.00,,,0.00,Rainwise IP-100,2014-01-15 22:01:00,
2014-01-15 16:07:00,48.1,28.0,28.61,South,180,14.2,15.0,43,0.00,,,0.00,Rainwise IP-100,2014-01-15 22:07:00,
2014-01-15 16:12:00,48.1,28.0,28.61,South,180,10.5,15.0,44,0.00,,,0.00,Rainwise IP-100,2014-01-15 22:12:00,
2014-01-15 16:17:00,48.1,28.0,28.60,SSE,157,8.6,15.0,44,0.00,,,0.00,Rainwise IP-100,2014-01-15 22:17:00,
2014-01-15 16:22:00,48.2,28.0,28.61,South,180,10.3,14.0,44,0.00,,,0.00,Rainwise IP-100,2014-01-15 22:22:00,
2014-01-15 16:27:00,48.2,28.0,28.60,SSE,157,10.5,15.0,44,0.00,,,0.00,Rainwise IP-100,2014-01-15 22:27:00,
2014-01-15 16:32:00,48.2,28.0,28.60,SSE,157,7.5,12.0,45,0.00,,,0.00,Rainwise IP-100,2014-01-15 22:32:00,
2014-01-15 16:37:00,48.1,28.0,28.60,South,180,10.3,15.0,45,0.00,,,0.00,Rainwise IP-100,2014-01-15 22:37:00,
2014-01-15 16:42:00,47.9,28.0,28.59,SSE,157,7.5,13.0,45,0.00,,,0.00,Rainwise IP-100,2014-01-15 22:42:00,
2014-01-15 16:47:00,47.6,28.0,28.59,SSE,157,9.8,11.0,46,0.00,,,0.00,Rainwise IP-100,2014-01-15 22:47:00,
2014-01-15 16:52:00,47.3,28.0,28.59,SSE,157,6.8,10.0,47,0.00,,,0.00,Rainwise IP-100,2014-01-15 22:52:00,
2014-01-15 16:57:00,47.0,28.0,28.59,SSE,157,7.7,10.0,47,0.00,,,0.00,Rainwise IP-100,2014-01-15 22:57:00,
2014-01-15 17:02:00,46.5,28.0,28.59,SSE,157,6.3,9.0,48,0.00,,,0.00,Rainwise IP-100,2014-01-15 23:02:00,
2014-01-15 17:08:00,46.1,28.0,28.58,SSE,157,5.6,9.0,49,0.00,,,0.00,Rainwise IP-100,2014-01-15 23:08:00,
2014-01-15 17:13:00,45.7,28.0,28.58,SSE,157,7.7,10.0,49,0.00,,,0.00,Rainwise IP-100,2014-01-15 23:13:00,
2014-01-15 17:18:00,45.5,29.0,28.58,SSE,157,7.0,9.0,50,0.00,,,0.00,Rainwise IP-100,2014-01-15 23:18:00,
2014-01-15 17:23:00,44.9,28.0,28.58,SSE,157,5.6,7.0,50,0.00,,,0.00,Rainwise IP-100,2014-01-15 23:23:00,
2014-01-15 17:28:00,44.1,28.0,28.58,SSE,157,5.4,7.0,51,0.00,,,0.00,Rainwise IP-100,2014-01-15 23:28:00,
2014-01-15 17:33:00,43.4,28.0,28.57,SSE,157,6.3,7.0,53,0.00,,,0.00,Rainwise IP-100,2014-01-15 23:33:00,
2014-01-15 17:38:00,42.8,28.0,28.57,SSE,157,7.5,9.0,54,0.00,,,0.00,Rainwise IP-100,2014-01-15 23:38:00,
2014-01-15 17:43:00,42.6,28.0,28.57,SSE,157,7.0,9.0,55,0.00,,,0.00,Rainwise IP-100,2014-01-15 23:43:00,
2014-01-15 17:48:00,42.5,28.0,28.57,SSE,157,4.7,11.0,55,0.00,,,0.00,Rainwise IP-100,2014-01-15 23:48:00,
2014-01-15 17:53:00,42.1,28.0,28.56,SSE,157,6.8,9.0,55,0.00,,,0.00,Rainwise IP-100,2014-01-15 23:53:00,
2014-01-15 17:58:00,41.7,28.0,28.56,SSE,157,6.1,9.0,56,0.00,,,0.00,Rainwise IP-100,2014-01-15 23:58:00,
2014-01-15 18:03:00,41.1,28.0,28.56,South,180,5.1,7.0,57,0.00,,,0.00,Rainwise IP-100,2014-01-16 00:03:00,
2014-01-15 18:09:00,40.6,28.0,28.56,South,180,8.2,8.2,58,0.00,,,0.00,Rainwise IP-100,2014-01-16 00:09:00,
2014-01-15 18:14:00,40.2,28.0,28.56,SSE,157,8.6,10.0,59,0.00,,,0.00,Rainwise IP-100,2014-01-16 00:14:00,
2014-01-15 18:19:00,40.1,28.0,28.55,SSE,157,11.2,11.2,59,0.00,,,0.00,Rainwise IP-100,2014-01-16 00:19:00,
2014-01-15 18:24:00,40.1,28.0,28.56,SSE,157,6.8,12.0,60,0.00,,,0.00,Rainwise IP-100,2014-01-16 00:24:00,
2014-01-15 18:29:00,40.0,28.0,28.55,SSE,157,6.5,11.0,60,0.00,,,0.00,Rainwise IP-100,2014-01-16 00:29:00,
2014-01-15 18:34:00,40.0,28.0,28.55,SSE,157,9.6,12.0,60,0.00,,,0.00,Rainwise IP-100,2014-01-16 00:34:00,
2014-01-15 18:39:00,40.2,28.0,28.54,SSE,157,8.9,14.0,59,0.00,,,0.00,Rainwise IP-100,2014-01-16 00:39:00,
2014-01-15 18:44:00,40.4,28.0,28.54,SSE,157,10.0,13.0,59,0.00,,,0.00,Rainwise IP-100,2014-01-16 00:44:00,
2014-01-15 18:49:00,40.6,28.0,28.55,SSE,157,7.7,14.0,59,0.00,,,0.00,Rainwise IP-100,2014-01-16 00:49:00,
2014-01-15 18:54:00,40.6,28.0,28.55,SSE,157,8.2,12.0,59,0.00,,,0.00,Rainwise IP-100,2014-01-16 00:54:00,
2014-01-15 18:59:00,40.4,28.0,28.54,SSE,157,7.5,11.0,59,0.00,,,0.00,Rainwise IP-100,2014-01-16 00:59:00,
2014-01-15 19:04:00,40.1,28.0,28.54,SSE,157,8.6,10.0,60,0.00,,,0.00,Rainwise IP-100,2014-01-16 01:04:00,
2014-01-15 19:10:00,39.8,28.0,28.54,South,180,7.2,10.0,60,0.00,,,0.00,Rainwise IP-100,2014-01-16 01:10:00,
2014-01-15 19:15:00,39.4,28.0,28.54,SSE,157,6.1,9.0,61,0.00,,,0.00,Rainwise IP-100,2014-01-16 01:15:00,
2014-01-15 19:20:00,39.0,28.0,28.54,SSE,157,5.8,7.0,61,0.00,,,0.00,Rainwise IP-100,2014-01-16 01:20:00,
2014-01-15 19:25:00,38.6,28.0,28.54,South,180,5.8,8.0,62,0.00,,,0.00,Rainwise IP-100,2014-01-16 01:25:00,
2014-01-15 19:30:00,38.3,26.0,28.53,SSE,157,6.1,8.0,63,0.00,,,0.00,Rainwise IP-100,2014-01-16 01:30:00,
2014-01-15 19:35:00,38.2,28.0,28.53,SSE,157,7.0,8.0,64,0.00,,,0.00,Rainwise IP-100,2014-01-16 01:35:00,
2014-01-15 19:40:00,38.0,28.0,28.53,SSE,157,6.8,8.0,64,0.00,,,0.00,Rainwise IP-100,2014-01-16 01:40:00,
2014-01-15 19:45:00,37.8,28.0,28.53,SSE,157,5.6,8.0,64,0.00,,,0.00,Rainwise IP-100,2014-01-16 01:45:00,
2014-01-15 19:50:00,37.5,28.0,28.52,SSE,157,6.5,9.0,65,0.00,,,0.00,Rainwise IP-100,2014-01-16 01:50:00,
2014-01-15 19:55:00,37.4,26.0,28.52,SSE,157,9.1,9.1,65,0.00,,,0.00,Rainwise IP-100,2014-01-16 01:55:00,
2014-01-15 20:00:00,37.4,28.0,28.52,SSE,157,7.9,9.0,66,0.00,,,0.00,Rainwise IP-100,2014-01-16 02:00:00,
2014-01-15 20:05:00,37.4,28.0,28.51,SSE,157,6.8,9.0,66,0.00,,,0.00,Rainwise IP-100,2014-01-16 02:05:00,
2014-01-15 20:11:00,37.4,28.0,28.51,SSE,157,6.8,9.0,66,0.00,,,0.00,Rainwise IP-100,2014-01-16 02:11:00,
2014-01-15 20:16:00,37.5,28.0,28.51,SSE,157,8.2,8.2,66,0.00,,,0.00,Rainwise IP-100,2014-01-16 02:16:00,
2014-01-15 20:21:00,38.0,28.0,28.51,South,180,9.3,11.0,65,0.00,,,0.00,Rainwise IP-100,2014-01-16 02:21:00,
2014-01-15 20:26:00,38.3,28.0,28.50,SSE,157,7.0,9.0,65,0.00,,,0.00,Rainwise IP-100,2014-01-16 02:26:00,
2014-01-15 20:31:00,38.3,28.0,28.50,SSE,157,7.0,7.0,65,0.00,,,0.00,Rainwise IP-100,2014-01-16 02:31:00,